Location: Deuil
(48.9767°N, 2.3272°E)
Time: 18:36:52
(UTC+00:00)

Cosmos 407 Rocket - Pass Details

Date: 24 October 2021
Orbit: 743 x 787 km, 74.0° (Epoch: 07 December)

Event Time Altitude Azimuth Distance (km) Brightness Sun altitude
Rises 18:10:15 0° 340° (NNW) 3,268 7.0 -14.8°
Reaches altitude 10° 18:12:48 10° 349° (N) 2,343 6.1 -15.2°
Maximum altitude 18:17:47 39° 58° (ENE) 1,175 4.0 -16.1°
Enters shadow 18:20:08 26° 106° (ESE) 1,519 4.5 -16.4°
